Voltar ao catálogo

STARLINK-30290

AtivoComunicaçõesVLEO
NORAD 57858·PAYLOAD·🇺🇸 United States

Lançado Sep 12, 2023 de Vandenberg Space Force Base

Loading…

Próximas Passagens (próximas 24 horas)

TLE

AtualizadoSource: CelesTrak SupGP

Época: Sep 14, 2026, 13:33 UTC

1 57858C 23141U   26257.56506944  .00045234  00000+0  13366-2 0  2570
2 57858  53.1569 125.2878 0001295  96.7522  32.9031 15.34365162    10

Acompanhe STARLINK-30290 em tempo real com AllMySat

Download on the App Store